Location: Austin, TX
(30.3000°N, 97.7500°W)
Time: 17:58:24
(UTC-05:00)

Daily predictions for brighter satellites

Satellite Brightness Start Highest point End
(mag) Time Altitude Azimuth Time Altitude Azimuth Time Altitude Azimuth
Atlas Centaur 2 3.2 20:16:10 10° SW 20:22:04 39° SSE 20:29:11 10° E
Molniya-1 2.0 20:25:50 10° SSW 20:27:23 56° ESE 20:29:01 10° NE
SL-8 R/B 4.3 20:24:22 10° NW 20:29:00 44° NE 20:33:36 10° ESE
Cosmos 1455 2.5 20:30:17 10° SSE 20:33:53 43° E 20:37:30 10° NNE
In-Cosmos 22 Rocket 4.2 20:32:35 10° N 20:37:54 82° W 20:43:12 10° S
Meteor 1-27 4.4 20:34:00 10° S 20:39:37 78° W 20:45:13 10° N
DELTA 2 R/B (1) 4.1 20:38:57 10° NW 20:44:26 52° NNE 20:49:34 12° E
Cosmos 1697 Rocket 4.5 20:39:24 10° SW 20:44:36 37° WNW 20:49:49 10° N
Cosmos 1869 4.0 20:43:22 10° SSE 20:46:53 32° E 20:50:24 10° NNE
CZ-3B DEB 0.9 20:43:07 10° NNW 20:47:04 48° NE 20:48:45 16° ESE
Spot 2 Rocket 3.7 20:43:48 10° SSE 20:48:44 53° ENE 20:53:40 10° N
Lacrosse 5 4.5 20:46:40 10° W 20:49:29 15° WSW 20:52:19 10° SSW
Resurs 01 Rocket 1.7 20:46:21 10° SSE 20:50:43 59° ENE 20:55:06 10° N
OAO 3 Rocket 3.8 20:46:19 10° W 20:51:07 57° N 20:56:00 10° ENE
SJ-6B 3.7 20:47:57 10° S 20:51:44 52° W 20:55:37 10° NNW
FENGYUN 3A 3.9 20:48:09 10° S 20:53:29 72° WSW 20:58:51 10° NNW
Cosmos 1892 2.6 20:53:44 10° N 20:57:32 81° E 21:01:21 10° S
GRACE-1 4.0 20:55:26 10° NNE 20:58:07 47° E 21:00:31 12° SSE
GRACE-2 4.0 20:55:50 10° NNE 20:58:29 47° E 21:00:50 12° SSE
FALCON 9 R/B 1.5 20:56:09 10° W 20:59:03 38° NNW 21:00:47 13° ENE
Cosmos 2297 Rocket 3.7 20:54:17 10° NW 20:59:27 37° WSW 21:04:36 10° S
Cosmos 1400 Rocket 2.8 20:56:28 10° N 21:00:23 83° W 21:04:19 10° S
H-2A R/B 2.9 20:57:52 10° S 21:01:47 77° W 21:05:41 10° NNW
Meteor 1-29 3.6 21:01:20 10° NNE 21:04:28 32° E 21:06:41 16° SSE
Cosmos 2142 Rocket 4.5 20:59:26 10° S 21:05:24 58° E 21:11:25 10° NNE
Cosmos 2322 Rocket 2.2 21:00:50 10° S 21:06:18 59° ESE 21:11:49 10° NNE
Cosmos 2263 Rocket 4.0 21:04:05 10° NNE 21:06:47 14° ENE 21:08:25 12° ENE
Envisat 3.7 21:05:47 19° ESE 21:08:43 33° ENE 21:13:14 10° N
Cosmos 1315 Rocket 2.7 21:10:03 10° N 21:14:05 70° E 21:17:08 17° SSE
Meteor 2-3 Rocket 4.5 21:10:53 10° NNW 21:16:29 56° W 21:22:05 10° S
Cosmos 2360 Rocket 3.2 21:15:49 23° ESE 21:16:53 24° E 21:21:20 10° NE
Cosmos 1980 Rocket 4.1 21:12:33 10° SW 21:17:37 34° WNW 21:22:44 10° N
OTV 4 0.5 21:16:49 10° WNW 21:19:39 60° SSW 21:20:12 47° SSE
CZ-2D R/B 3.6 21:18:28 10° S 21:22:19 64° WSW 21:26:12 10° NNW
H-2A R/B (2) 4.4 21:18:52 10° WSW 21:23:29 29° S 21:33:12 17° SE
GENESIS II 4.1 21:21:42 10° SSW 21:25:44 83° ESE 21:29:47 10° NNE
USA 234 4.1 21:22:54 20° E 21:26:38 37° NE 21:32:30 10° NNW
CZ-3 Stage 3 4.0 20:53:16 10° WNW 21:26:46 49° SW 21:31:42 20° SSE
SEDSat Delta rocket 3.5 21:21:31 10° WSW 21:26:46 84° S 21:30:34 23° E
Cosmos 1825 2.7 21:23:28 10° NNE 21:27:02 38° E 21:27:16 38° E
Cosmos 2026 Rocket 4.0 21:24:37 10° N 21:30:44 58° E 21:34:22 24° SSE
SL-16 R/B 2.3 21:28:21 10° SSW 21:34:00 78° WNW 21:39:41 10° NNE
USA 186 2.3 21:34:07 35° SW 21:34:42 43° W 21:37:22 10° NNW
GPS 2-04 Rocket1 3.7 21:32:11 10° W 21:35:25 30° SSW 21:36:03 28° S
ATLAS CENTAUR R/B 3.2 21:32:37 10° NW 21:35:58 48° SW 21:42:08 16° SSE
Cosmos 1862 4.0 21:36:59 10° N 21:40:18 37° ENE 21:40:18 37° ENE
ERS-1 Rocket 3.7 21:42:09 32° ENE 21:42:24 33° ENE 21:46:51 10° N
SAR-Lupe-4 3.5 21:42:20 53° S 21:43:05 79° WSW 21:46:40 10° NNW
Helios 1B rocket 3.3 21:39:23 10° N 21:43:20 49° WNW 21:47:17 10° SSW
Skynet4D Del rocket 4.4 21:36:34 10° WSW 21:44:46 68° S 21:48:17 35° ESE
Cosmos 1939 Rocket 2.8 21:44:20 60° ESE 21:44:47 67° ENE 21:48:48 10° N
Intercosmos 25 Rocket 3.4 21:43:45 29° SSW 21:45:06 58° W 21:48:27 10° N
Lacrosse 4 Rocket 2.2 21:41:06 10° N 21:45:08 38° ENE 21:45:08 38° ENE
ATLAS 5 CENTAUR R/B 4.0 21:42:22 10° N 21:46:32 19° NE 21:47:45 18° ENE
ERBS 3.5 21:43:24 10° NNW 21:46:04 33° NNE 21:46:04 33° NNE
Milstar 3 2.8 21:42:45 10° W 21:50:39 72° S 21:53:10 40° ESE
Cosmos 1733 Rocket 3.0 21:46:55 10° N 21:51:19 60° E 21:51:22 60° E
Sakura Rocket 3.7 21:47:50 10° SW 21:50:46 37° SSW 21:50:46 37° SSW
Cosmos 1862 Rocket 3.5 21:50:04 40° S 21:51:40 88° E 21:56:09 10° N
SeaSat 1 4.3 21:57:02 17° NE 21:57:02 17° NE 21:59:46 10° NNE
Cosmos 1655 Rocket 3.9 21:51:32 10° N 21:57:56 80° E 22:00:35 38° SSE
Meteor 1-26 Rocket 4.4 21:58:32 49° E 21:58:32 49° E 22:03:59 10° NNE
Cosmos 1408 3.1 21:58:25 10° NNW 22:01:58 57° W 22:01:58 57° W
USA 229 DEB 3.6 22:00:31 10° SSW 22:07:11 62° ESE 22:13:57 10° NE
USA 229 3.6 22:00:36 10° SSW 22:07:16 61° ESE 22:14:01 10° NE
Atlas Centaur 2 2.8 22:04:09 10° WSW 22:11:23 78° SSE 22:14:12 45° E
Cosmos 2266 Rocket 4.4 22:12:46 10° N 22:18:12 46° ENE 22:18:12 46° ENE
MetOp-A 4.4 22:28:38 58° NNE 22:28:38 58° NNE 22:33:05 10° N
DELTA 2 R/B (1) 4.2 22:25:31 10° WNW 22:30:21 47° SW 22:30:21 47° SW
H-2A R/B 3.8 22:33:27 20° NNE 22:33:27 20° NNE 22:35:21 10° NNE
OAO 3 Rocket 4.1 22:30:18 10° WNW 22:34:28 47° NNW 22:34:28 47° NNW
SPOT 5 4.1 22:43:25 35° N 22:43:25 35° N 22:46:09 10° N
COSMOS 2428 4.4 22:52:07 23° NNE 22:52:07 23° NNE 22:54:08 10° NNE
H-2A R/B 3.8 14:45:49 10° SSW 22:49:02 82° S 22:51:40 58° ESE
Cosmos 2263 Rocket 2.7 22:45:37 10° NNW 22:50:08 55° WNW 22:50:08 55° WNW
Cosmos 2360 Rocket 3.6 22:57:15 19° WSW 23:00:36 34° WNW 23:05:43 10° N
USA 234 3.8 23:10:15 48° WSW 23:10:15 48° WSW 23:15:45 10° NW
ATLAS 5 CENTAUR R/B 3.6 23:25:28 10° NNW 23:29:19 40° NW 23:29:19 40° NW
